Moffett NAS, CA

8:59 AM PST on January 22, 2018 (GMT -0800)
Moffett Federal Air Field

Weather History for KNUQ - May, 2007

Change the Weather History Date:

Saturday, May 26, 2007

  Actual Average Record
Temperature  
Mean Temperature 62 °F 64 °F  
Max Temperature 69 °F 73 °F 89 °F (1974)
Min Temperature 55 °F 54 °F 42 °F (1953)
Degree Days  
Heating Degree Days 4    
Month to date heating degree days  
Since 1 July heating degree days  
Cooling Degree Days 0    
Month to date cooling degree days  
Year to date cooling degree days  
Growing Degree Days 12 (Base 50)    
Moisture  
Dew Point 51 °F    
Average Humidity 74    
Maximum Humidity 84    
Minimum Humidity 59    
Precipitation  
Precipitation 0.00 in 0.01 in 0.17 in (1946)
Month to date precipitation 0.43  
Year to date precipitation 9.49  
Sea Level Pressure  
Sea Level Pressure 29.96 in    
Wind  
Wind Speed 6 mph (North)    
Max Wind Speed 18 mph    
Max Gust Speed 25 mph    
Visibility 9 miles    
Events      
T = Trace of Precipitation, MM = Missing Value Source: NWS Daily Summary

Daily Weather History Graph

Daily Weather History Graph

Search for Another Location

Airport or City:

Trip Planner

Search our weather history database for the weather conditions in past years. The results will help you decide how hot, cold, wet, or windy it might be!

Date:

Astronomy

May. 26, 2007 Rise Set
Actual Time 5:51 AM PDT 8:19 PM PDT
Civil Twilight 5:21 AM PDT 8:49 PM PDT
Nautical Twilight 4:44 AM PDT 9:26 PM PDT
Astronomical Twilight 4:03 AM PDT 10:07 PM PDT
Moon 3:39 PM PDT (5/26) 2:52 AM PDT (5/26)
Length of Visible Light 15h 27m
Length of Day
14h 27m
Waxing Gibbous, 77% of the Moon is Illuminated
May 26
Waxing Gibbous
May 31
Full
Jun 8
Last Quarter
Jun 14
New
Jun 22
First Quarter

Hourly Weather History & Observations

Time (PDT) Temp. Dew Point Humidity Pressure Visibility Wind Dir Wind Speed Gust Speed Precip Events Conditions
12:56 AM 55.9 °F 51.1 °F 84% 29.97 in 10.0 mi NE 4.6 mph - N/A   Overcast
1:56 AM 55.9 °F 50.0 °F 80% 29.96 in 10.0 mi North 5.8 mph - N/A   Overcast
2:56 AM 55.9 °F 51.1 °F 84% 29.96 in 10.0 mi Calm Calm - N/A   Overcast
3:56 AM 55.9 °F 50.0 °F 80% 29.96 in 10.0 mi North 5.8 mph - N/A   Overcast
4:56 AM 55.9 °F 51.1 °F 84% 29.96 in 10.0 mi ENE 5.8 mph - N/A   Overcast
5:56 AM 55.9 °F 50.0 °F 80% 29.96 in 9.0 mi Calm Calm - N/A   Overcast
6:56 AM 57.0 °F 51.1 °F 81% 29.98 in 9.0 mi NE 3.5 mph - N/A   Overcast
7:56 AM 57.0 °F 51.1 °F 81% 29.98 in 8.0 mi NE 3.5 mph - N/A   Overcast
8:56 AM 57.9 °F 51.1 °F 78% 29.99 in 7.0 mi Variable 5.8 mph - N/A   Overcast
9:23 AM 57.2 °F 51.8 °F 82% 29.98 in 7.0 mi SE 5.8 mph - N/A   Overcast
9:56 AM 61.0 °F 52.0 °F 72% 29.99 in 7.0 mi Variable 3.5 mph - N/A   Overcast
10:36 AM 64.4 °F 51.8 °F 64% 29.97 in 7.0 mi NE 3.5 mph - N/A   Scattered Clouds
10:56 AM 63.0 °F 52.0 °F 67% 29.98 in 6.0 mi North 6.9 mph - N/A   Clear
11:56 AM 64.9 °F 53.1 °F 65% 29.98 in 7.0 mi NNW 6.9 mph - N/A   Clear
12:56 PM 66.9 °F 53.1 °F 61% 29.96 in 8.0 mi North 5.8 mph - N/A   Clear
1:56 PM 68.0 °F 53.1 °F 59% 29.94 in 10.0 mi North 9.2 mph - N/A   Clear
2:56 PM 68.0 °F 53.1 °F 59% 29.94 in 10.0 mi NW 10.4 mph - N/A   Clear
3:56 PM 66.9 °F 53.1 °F 61% 29.93 in 10.0 mi NNW 13.8 mph - N/A   Clear
4:56 PM 64.9 °F 53.1 °F 65% 29.92 in 10.0 mi NNW 17.3 mph 25.3 mph N/A   Clear
5:56 PM 63.0 °F 51.1 °F 65% 29.92 in 10.0 mi NNW 17.3 mph 23.0 mph N/A   Clear
6:56 PM 62.1 °F 50.0 °F 65% 29.93 in 10.0 mi NNW 18.4 mph - N/A   Clear
7:56 PM 57.9 °F 50.0 °F 75% 29.94 in 10.0 mi North 15.0 mph - N/A   Clear
8:56 PM 55.9 °F 48.9 °F 77% 29.96 in 10.0 mi North 12.7 mph - N/A   Clear
9:56 PM 55.0 °F 50.0 °F 83% 29.98 in 10.0 mi NNE 9.2 mph - N/A   Clear
10:29 PM 55.4 °F 50.0 °F 82% 29.97 in 10.0 mi Calm Calm - N/A   Mostly Cloudy
10:56 PM 55.9 °F 48.9 °F 77% 29.99 in 10.0 mi Calm Calm - N/A   Overcast
11:56 PM 55.9 °F 48.9 °F 77% 29.99 in 10.0 mi Calm Calm - N/A   Scattered Clouds